Terug naar catalogus

STARLINK-5552

ActiefCommunicatieSSO
NORAD 56339·PAYLOAD·🇺🇸 United States

Gelanceerd Apr 27, 2023 vanaf Vandenberg Space Force Base

Loading…

Volgende Passages (komende 24 uur)

TLE

VersSource: CelesTrak SupGP

Epoch: Sep 15, 2026, 02:26 UTC

1 56339C 23058Y   26258.10187500 -.00062123  00000+0 -37773-2 0  2581
2 56339  97.2848 252.3080 0002285  91.4744 225.0879 15.10574754    15

Volg STARLINK-5552 in realtime met AllMySat

Download on the App Store